• Join FlightAware (Why Join?)
  • Login
  • US Flag 
11:22PM EST


 

Airport Tracker/Info


-or-


 

Live Flight TrackerFlight Track Log ✈ UAL4457 ✈ 17-Apr-2013 ✈ KIAH - KLEX

Flight Track Log - Related Links

Times and Time Zones

All times are in EDT time to prevent confusion due to time zone crossing. See the UAL4457 flight status page for this flight to view local times or setup timezone preferences in your user account.

Time Position Orientation Groundspeed Altitude Reporting Facility
EDT Latitude Longitude Course Direction KTS MPH feet Rate Location/Type
02:58PM 29.9764 -95.2983 41° Northeast 175 201 600  Level Houston Center
03:00PM 30.0492 -95.2764 15° North 272 313 2,800 2,311 Climbing Houston Center
03:01PM 30.1256 -95.2756 North 278 320 5,800 2,784 Climbing Houston Center
03:02PM 30.3629 -95.0297 35° Northeast  Level FlightAware Approximate
03:02PM 30.2036 -95.2681 North 276 318 8,600  Level Houston Center
03:03PM 30.4547 -94.9500 North  Level FlightAware Approximate
03:03PM 30.2672 -95.2150 36° Northeast 294 338 10,300  Level Houston Center
03:04PM 30.5520 -94.8813 41° Northeast  Level FlightAware Approximate
03:04PM 30.3336 -95.1406 44° Northeast 327 376 11,600  Level Houston Center
03:05PM 30.4200 -95.0428 44° Northeast 358 412 13,600 1,742 Climbing Houston Center
03:06PM 30.4867 -94.9656 45° Northeast 364 419 15,200 1,584 Climbing Houston Center
03:07PM 30.5608 -94.8831 44° Northeast 368 423 16,900 1,728 Climbing Houston Center
03:08PM 30.6658 -94.8042 33° Northeast 373 429 18,800 1,790 Climbing Houston Center
03:09PM 30.7531 -94.7375 33° Northeast 376 433 20,600 1,645 Climbing Houston Center
03:10PM 30.8428 -94.6686 33° Northeast 385 443 22,200 1,630 Climbing Houston Center
03:11PM 30.8944 -94.6272 35° Northeast 387 445 23,100 1,600 Climbing Fort Worth Center
03:12PM 30.9869 -94.5567 33° Northeast 403 464 24,600 950 Climbing Fort Worth Center
03:13PM 31.0853 -94.4808 33° Northeast 408 470 25,000 200 Climbing Fort Worth Center
03:14PM 31.1797 -94.4100 33° Northeast 420 483 25,000 400 Level Fort Worth Center
03:15PM 31.2919 -94.3017 40° Northeast 457 526 25,800 950 Climbing Fort Worth Center
03:16PM 31.3747 -94.1869 50° Northeast 457 526 26,900 1,150 Climbing Fort Worth Center
03:17PM 31.4553 -94.0722 51° Northeast 452 520 28,100 1,150 Climbing Fort Worth Center
03:18PM 31.5333 -93.9572 51° Northeast 452 520 29,200 1,290 Climbing Fort Worth Center
03:18PM 31.5981 -93.8692 49° Northeast 450 518 30,400 1,817 Climbing Houston Center
03:19PM 31.6731 -93.7583 51° Northeast 437 503 32,500 1,597 Climbing Houston Center
03:20PM 31.7464 -93.6539 50° Northeast 418 481 33,700 1,161 Climbing Houston Center
03:21PM 31.8272 -93.5378 51° Northeast 418 481 34,900 629 Climbing Houston Center
03:22PM 31.9017 -93.4286 51° Northeast 425 489 35,000 48 Climbing Houston Center
03:24PM 31.9817 -93.3122 51° Northeast 450 518 35,000  Level Houston Center
03:25PM 32.0656 -93.1922 50° Northeast 450 518 35,000  Level Fort Worth Center
03:26PM 32.1531 -93.0656 51° Northeast 477 549 35,000  Level Fort Worth Center
03:27PM 32.2383 -92.9411 51° Northeast 483 556 35,000  Level Fort Worth Center
03:28PM 32.3233 -92.8114 52° Northeast 483 556 35,000  Level Fort Worth Center
03:29PM 32.4144 -92.6764 51° Northeast 494 568 35,000  Level Fort Worth Center
03:30PM 32.4953 -92.5514 53° Northeast 501 577 35,000  Level Fort Worth Center
03:31PM 32.5764 -92.4386 50° Northeast 477 549 35,000  Level Fort Worth Center
03:32PM 32.6692 -92.3028 51° Northeast 467 537 35,000  Level Fort Worth Center
03:33PM 32.8211 -92.0728 52° Northeast 462 532 35,000  Level Memphis Center
03:34PM 32.8892 -91.9628 54° Northeast 462 532 35,000  Level Memphis Center
03:35PM 32.9681 -91.8406 52° Northeast 462 532 35,000  Level Memphis Center
03:36PM 33.0508 -91.7178 51° Northeast 462 532 35,000  Level Memphis Center
03:37PM 33.1336 -91.5878 53° Northeast 469 540 35,000  Level Memphis Center
03:38PM 33.2183 -91.4622 51° Northeast 480 552 35,000  Level Memphis Center
03:39PM 33.2986 -91.3339 53° Northeast 480 552 35,000  Level Memphis Center
03:40PM 33.3850 -91.2056 51° Northeast 485 558 35,000  Level Memphis Center
03:41PM 33.4672 -91.0794 52° Northeast 485 558 35,000  Level Memphis Center
03:42PM 33.5494 -90.9531 52° Northeast 485 558 35,000  Level Memphis Center
03:43PM 33.6292 -90.8286 52° Northeast 479 551 35,000  Level Memphis Center
03:44PM 33.7089 -90.7044 52° Northeast 474 545 35,000  Level Memphis Center
03:45PM 33.7906 -90.5747 53° Northeast 479 551 35,000  Level Memphis Center
03:46PM 33.8764 -90.4372 53° Northeast 479 551 35,000  Level Memphis Center
03:47PM 33.9578 -90.3097 52° Northeast 479 551 35,000  Level Memphis Center
03:48PM 34.0369 -90.1842 53° Northeast 479 551 35,000  Level Memphis Center
03:49PM 34.1161 -90.0561 53° Northeast 479 551 35,000  Level Memphis Center
03:50PM 34.1969 -89.9253 53° Northeast 479 551 35,000  Level Memphis Center
03:51PM 34.2758 -89.7992 53° Northeast 479 551 35,000  Level Memphis Center
03:52PM 34.3522 -89.6728 54° Northeast 474 545 35,000 400 Level Memphis Center
03:53PM 34.4331 -89.5464 52° Northeast 474 545 35,800 950 Climbing Memphis Center
03:54PM 34.5072 -89.4222 54° Northeast 464 534 36,900 600 Climbing Memphis Center
03:55PM 34.5833 -89.3000 53° Northeast 453 521 37,000 50 Climbing Memphis Center
03:56PM 34.6636 -89.1703 53° Northeast 458 527 37,000  Level Memphis Center
03:57PM 34.7417 -89.0428 53° Northeast 465 535 37,000  Level Memphis Center
03:58PM 34.8194 -88.9153 53° Northeast 470 541 37,000  Level Memphis Center
03:59PM 34.8911 -88.8000 53° Northeast 470 541 37,000  Level Memphis Center
04:00PM 34.9686 -88.6744 53° Northeast 470 541 37,000  Level Memphis Center
04:01PM 35.0442 -88.5486 54° Northeast 461 531 37,000  Level Memphis Center
04:02PM 35.1217 -88.4250 53° Northeast 461 531 37,000  Level Memphis Center
04:03PM 35.1967 -88.2989 54° Northeast 461 531 37,000  Level Memphis Center
04:04PM 35.2739 -88.1722 53° Northeast 461 531 37,000  Level Memphis Center
04:05PM 35.3486 -88.0381 56° Northeast 461 531 37,000  Level Memphis Center
04:06PM 35.4233 -87.9161 53° Northeast 456 525 37,000  Level Memphis Center
04:07PM 35.5081 -87.7758 53° Northeast 461 531 37,000  Level Memphis Center
04:08PM 35.5847 -87.6433 55° Northeast 461 531 37,000  Level Memphis Center
04:09PM 35.6608 -87.5131 54° Northeast 461 531 37,000  Level Memphis Center
04:10PM 35.7350 -87.3803 55° Northeast 461 531 37,000  Level Memphis Center
04:11PM 35.8131 -87.2494 54° Northeast 461 531 37,000 -100 Level Memphis Center
04:12PM 35.8911 -87.1158 54° Northeast 466 536 36,800 -400 Descending Memphis Center
04:13PM 35.9667 -86.9819 55° Northeast 472 543 36,200 -800 Descending Memphis Center
04:14PM 36.0422 -86.8478 55° Northeast 472 543 35,200 -1,050 Descending Memphis Center
04:15PM 36.1194 -86.7083 56° Northeast 488 562 34,100 -1,100 Descending Memphis Center
04:16PM 36.2072 -86.5783 50° Northeast 493 567 33,000 -1,100 Descending Memphis Center
04:17PM 36.2972 -86.4506 49° Northeast 488 562 31,900 -1,150 Descending Memphis Center
04:18PM 36.3850 -86.3278 48° Northeast 478 550 30,700 -1,250 Descending Memphis Center
04:19PM 36.4725 -86.2022 49° Northeast 472 543 29,400 -1,350 Descending Memphis Center
04:20PM 36.5619 -86.0736 49° Northeast 477 549 28,000 -1,330 Descending Memphis Center
04:23PM 36.7769 -85.7608 49° Northeast 476 548 24,700 -1,121 Descending Indianapolis Center
04:24PM 36.8631 -85.6361 49° Northeast 473 544 24,000 -339 Descending Indianapolis Center
04:25PM 36.9456 -85.5153 49° Northeast 459 528 24,000 -48 Level Indianapolis Center
04:26PM 37.0283 -85.3922 50° Northeast 449 517 23,900 -829 Descending Indianapolis Center
04:27PM 37.1089 -85.2744 49° Northeast 460 529 22,300 -2,098 Descending Indianapolis Center
04:28PM 37.2019 -85.1353 50° Northeast 448 516 19,600 -2,371 Descending Indianapolis Center
04:29PM 37.2753 -85.0242 50° Northeast 415 478 17,400 -2,226 Descending Indianapolis Center
04:30PM 37.3467 -84.9183 50° Northeast 394 453 15,000 -2,323 Descending Indianapolis Center
04:31PM 37.4147 -84.8153 50° Northeast 382 440 12,600 -1,935 Descending Indianapolis Center
04:32PM 37.4836 -84.7253 46° Northeast 360 414 11,000 -1,016 Descending Indianapolis Center
04:33PM 37.5756 -84.6983 13° North 344 396 10,500 -484 Descending Indianapolis Center
04:34PM 37.6861 -84.6772 North 344 396 10,000 -629 Descending Indianapolis Center
04:35PM 37.7706 -84.6600 North 312 359 9,200 -1,016 Descending Indianapolis Center
04:36PM 37.8519 -84.6442 North 298 343 7,900 -1,258 Descending Indianapolis Center
04:37PM 37.9183 -84.6050 25° Northeast 275 316 6,600 -1,306 Descending Indianapolis Center
04:38PM 37.9758 -84.5464 39° Northeast 268 308 5,200 -1,355 Descending Indianapolis Center